Regional Weather Roundup
Issued by NWS

Home | Current Version | Previous Version | Graphics & Text | Print | Product List | Glossary On
Versions: 1 2 3 4 5 6 7 8 9 10 11 12 13 14 15 16 17 18 19 20 21 22 23 24 25 26 27
000
ASUS45 KCYS 290210
RWRWY

WYOMING REGIONAL WEATHER ROUNDUP
NATIONAL WEATHER SERVICE CHEYENNE WY
800 PM MDT SAT MAY 28 2016

NOTE:  "FAIR" INDICATES FEW OR NO CLOUDS BELOW 12,000 FEET
WITH NO SIGNIFICANT WEATHER AND/OR OBSTRUCTIONS TO VISIBILITY.

WYZ001-290300-
YELLOWSTONE NATIONAL PARK

CITY           SKY/WX    TMP DP  RH WIND       PRES   REMARKS
LK YELLOWSTONE   N/A     47  29  49 CALM      30.19R
W YELLOWSTONE  NOT AVBL

$$
WYZ002>013-054>058-071-098>099-290300-
NORTHERN WYOMING

CITY           SKY/WX    TMP DP  RH WIND       PRES   REMARKS
JACKSON        NOT AVBL
CODY           CLOUDY    59  43  55 N7        30.03R
GREYBULL       FAIR      69  33  26 N9        29.96R
WORLAND        MOCLDY    69  37  30 N7        29.96R
SHERIDAN       FAIR      60  47  61 N5        30.01R
BUFFALO          N/A    N/A N/A N/A MISG      30.05R
GILLETTE       FAIR      62  42  47 NE9       30.02R
HULETT         FAIR      63  43  48 N7        30.03R
NEWCASTLE      FAIR      61  41  48 E5        30.02R

$$
WYZ014>020-022>026-101>103-290300-
CENTRAL WYOMING

CITY           SKY/WX    TMP DP  RH WIND       PRES   REMARKS
BIG PINEY      FAIR      57  29  34 NW10      30.13R
PINEDALE       FAIR      55  25  30 NW8       30.14R
DUBOIS         FAIR      54  18  24 NW13      30.11R
LANDER         FAIR      65  27  23 NW10      30.00R
RIVERTON       FAIR      67  23  19 W10       30.01R
CASPER         FAIR      62  40  44 NE8       30.03R
DOUGLAS          N/A    N/A N/A N/A MISG      30.04R

$$
WYZ021-027>030-104>119-290300-
SOUTHERN WYOMING

CITY           SKY/WX    TMP DP  RH WIND       PRES   REMARKS
EVANSTON       FAIR      57  29  34 W13       30.15R
KEMMERER         N/A     54  28  37 W9        30.16R
FORT BRIDGER   CLEAR     59  27  29 W13G23    30.17R
ROCK SPRINGS   FAIR      59  30  33 W10       30.12R
DIXON          MOCLDY    58  38  48 NW12      30.16R
RAWLINS        FAIR      61  30  31 W13       30.11R
SARATOGA       MOCLDY    55  34  44 W14G28    30.15R
LARAMIE        FAIR      56  32  40 W9        30.14R
CHEYENNE       FAIR      60  35  39 W8        30.09R
TORRINGTON     FAIR      63  46  54 E12       30.00R
PINE BLUFFS    FAIR      57  45  62 S10       30.05S

$$




USA.gov is the U.S. government's official web portal to all federal, state and local government web resources and services.